Regional Weather Roundup
Issued by NWS Albany, NY

Home | Current Version | Previous Version | Text Only | Print | Product List | Glossary On
Versions: 1 2 3 4 5 6 7 8 9 10 11 12 13 14 15 16 17 18 19 20 21 22 23 24 25 26 27
000
ASUS41 KALY 190210
RWRALY

NEW YORK STATE HOURLY WEATHER ROUNDUP
NATIONAL WEATHER SERVICE ALBANY NY
900 PM EST SUN FEB 18 2018

NOTE: "FAIR" INDICATES FEW OR NO CLOUDS BELOW 12,000 FEET WITH NO
SIGNIFICANT WEATHER AND/OR NO OBSTRUCTIONS TO VISIBILITY.

NYZ032-033-038>043-046>054-057>066-NYZ062>081-082-084-190300-
EAST


CITY           SKY/WX    TMP DP  RH WIND       PRES   REMARKS
ALBANY         MOCLDY    25  19  78 CALM      30.49R
GLENS FALLS    FAIR      28  21  75 SW3       30.47R
POUGHKEEPSIE   FAIR      28  22  78 E5        30.50R WCI  23
NEWBURGH       CLEAR     28  23  80 CALM      30.49R
MONTGOMERY     FAIR      25  21  85 CALM      30.47R
WHITE PLAINS   FAIR      30  23  75 CALM      30.48R
ISLIP          MOCLDY    34  24  67 NW3       30.50R
NEW YORK CITY  FAIR      40  24  53 CALM      30.49R
CENTRAL PARK   FAIR      40  22  48 NE3       30.52R
$$

NYZ005>009-017-018-044>046-055-056-190300-
CENTRAL


CITY           SKY/WX    TMP DP  RH WIND       PRES   REMARKS
FULTON         FAIR      26  21  81 SE3       30.41F
SYRACUSE       FAIR      27  22  81 SE3       30.42F
ROME           FAIR      29  22  75 E5        30.44F WCI  24
ELMIRA         FAIR      27  24  89 CALM      30.38F
BINGHAMTON     FAIR      25  17  72 SE7       30.37S WCI  17
MONTICELLO       N/A    N/A N/A N/A MISG        N/A
$$

NYZ026>034-041>043-087-190300-
NORTH


CITY           SKY/WX    TMP DP  RH WIND       PRES   REMARKS
WATERTOWN      FAIR      29  25  85 SE5       30.40F WCI  24
FORT DRUM      NOT AVBL
OGDENSBURG     FAIR      31  27  86 S8        30.39S WCI  23
MASSENA        FAIR      31  26  82 S9        30.41R WCI  23
SARANAC LAKE     N/A     21  19  92 SW3       30.35S
PLATTSBURGH    MOCLDY    29  20  69 S5        30.43R WCI  24
$$

NYZ001>004-010>016-019>021-085-190300-
WEST


CITY           SKY/WX    TMP DP  RH WIND       PRES   REMARKS
NIAGARA FALLS  FAIR      31  21  66 SE7       30.31F WCI  24
BUFFALO        FAIR      29  22  75 SE9       30.32F WCI  20
DUNKIRK        FAIR      29  23  78 E7        30.31F WCI  22
JAMESTOWN        N/A    N/A N/A N/A MISG        N/A
WELLSVILLE     FAIR      31  21  66 S6        30.33S WCI  25
ROCHESTER      FAIR      29  22  75 SE7       30.36F WCI  22
PENN YAN       FAIR      26  21  81 CALM      30.38S
$$

             KEY
       WCI = WIND CHILL INDEX
       VSB = VISIBILITY
       HX  = HEAT INDEX
$$




USA.gov is the U.S. government's official web portal to all federal, state and local government web resources and services.